Weather History for Torrington, WY

Change the Weather History Date:

Tuesday, November 13, 2012

  Actual Average Record
Temperature  
Mean Temperature 38 °F 37 °F  
Max Temperature 51 °F 51 °F 78 °F (1999)
Min Temperature 24 °F 23 °F 1 °F (2000)
Degree Days  
Heating Degree Days 27 28  
Month to date heating degree days 321 329  
Since 1 July heating degree days 947 1039  
Cooling Degree Days 0 0  
Month to date cooling degree days 0 0  
Year to date cooling degree days 1021 678  
Moisture  
Dew Point 20 °F    
Average Humidity 56    
Maximum Humidity 81    
Minimum Humidity 30    
Precipitation  
Precipitation 0.00 in 0.02 in 0.18 in (2008)
Month to date precipitation 0.05 0.25  
Year to date precipitation 6.96 13.65  
Sea Level Pressure  
Sea Level Pressure 30.23 in    
Wind  
Wind Speed 8 mph (West)    
Max Wind Speed 23 mph    
Max Gust Speed 30 mph    
Visibility 10 miles    
Events      
T = Trace of Precipitation, MM = Missing Value Source: NWS Daily Summary

Daily Weather History Graph

Daily Weather History Graph

Search for Another Location

Airport:

Trip Planner

Search our weather history database for the weather conditions in past years. The results will help you decide how hot, cold, wet, or windy it might be!

Date:

Astronomy

Nov. 13, 2012 Rise Set
Actual Time 6:44 AM MST 4:36 PM MST
Civil Twilight 6:14 AM MST 5:06 PM MST
Nautical Twilight 5:41 AM MST 5:40 PM MST
Astronomical Twilight 5:08 AM MST 6:13 PM MST
Moon 6:26 AM MST (11/13) 4:31 PM MST (11/13)
Length of Visible Light 10h 51m
Length of Day
9h 51m
Waning Crescent, 0% of the Moon is Illuminated
Nov 13
Waning Crescent
Nov 13
New
Nov 20
First Quarter
Nov 28
Full
Dec 6
Last Quarter

Hourly Weather History & Observations

Time (MST) Temp. Windchill Dew Point Humidity Pressure Visibility Wind Dir Wind Speed Gust Speed Precip Events Conditions
12:53 AM 33.1 °F 30.0 °F 12.0 °F 42% 30.22 in 10.0 mi SW 3.5 mph - N/A   Mostly Cloudy
1:53 AM 37.9 °F 30.0 °F 12.9 °F 36% 30.20 in 10.0 mi WSW 12.7 mph 20.7 mph N/A   Overcast
2:53 AM 39.0 °F 32.3 °F 12.0 °F 33% 30.18 in 10.0 mi West 10.4 mph - N/A   Mostly Cloudy
3:53 AM 36.0 °F 28.5 °F 15.1 °F 43% 30.19 in 10.0 mi WSW 10.4 mph - N/A   Overcast
4:53 AM 37.9 °F 31.5 °F 12.9 °F 36% 30.21 in 10.0 mi West 9.2 mph - N/A   Overcast
5:53 AM 39.9 °F 33.4 °F 18.0 °F 41% 30.22 in 10.0 mi WSW 10.4 mph - N/A   Overcast
6:53 AM 39.9 °F 32.5 °F 15.1 °F 36% 30.24 in 10.0 mi West 12.7 mph - N/A   Overcast
7:53 AM 39.9 °F 32.5 °F 19.0 °F 43% 30.26 in 10.0 mi West 12.7 mph - N/A   Overcast
8:53 AM 41.0 °F 34.3 °F 21.9 °F 47% 30.27 in 10.0 mi West 11.5 mph 23.0 mph N/A   Overcast
9:53 AM 44.1 °F 37.7 °F 23.0 °F 43% 30.28 in 10.0 mi West 12.7 mph 23.0 mph N/A   Scattered Clouds
10:53 AM 48.0 °F - 23.0 °F 37% 30.26 in 10.0 mi WNW 15.0 mph - N/A   Overcast
11:53 AM 46.9 °F - 21.0 °F 36% 30.22 in 10.0 mi NW 11.5 mph 19.6 mph N/A   Clear
12:53 PM 48.9 °F - 23.0 °F 36% 30.20 in 10.0 mi NNW 9.2 mph - N/A   Clear
1:53 PM 51.1 °F - 21.9 °F 32% 30.17 in 10.0 mi West 9.2 mph - N/A   Clear
2:53 PM 50.0 °F - 21.9 °F 33% 30.18 in 10.0 mi North 4.6 mph - N/A   Clear
3:53 PM 48.9 °F - 23.0 °F 36% 30.19 in 10.0 mi Calm Calm - N/A   Clear
4:53 PM 41.0 °F 38.0 °F 26.1 °F 55% 30.22 in 10.0 mi SE 4.6 mph - N/A   Clear
5:53 PM 42.1 °F 38.4 °F 25.0 °F 51% 30.23 in 10.0 mi WNW 5.8 mph - N/A   Clear
6:53 PM 39.9 °F 37.8 °F 24.1 °F 53% 30.25 in 10.0 mi Variable 3.5 mph - N/A   Partly Cloudy
7:53 PM 34.0 °F 29.8 °F 24.1 °F 67% 30.27 in 10.0 mi SSW 4.6 mph - N/A   Clear
8:53 PM 34.0 °F 29.8 °F 24.1 °F 67% 30.27 in 10.0 mi NNW 4.6 mph - N/A   Clear
9:53 PM 27.0 °F 20.5 °F 21.9 °F 81% 30.27 in 10.0 mi ESE 5.8 mph - N/A   Clear
10:53 PM 24.1 °F 19.7 °F 19.9 °F 84% 30.27 in 10.0 mi ESE 3.5 mph - N/A   Clear
11:53 PM 24.1 °F 19.7 °F 19.9 °F 84% 30.26 in 10.0 mi SE 3.5 mph - N/A   Clear